Hourly Data Report for October 05, 2016

All times are specified in Local Standard Time (LST). Add 1 hour to adjust for Daylight Saving Time where and when it is observed.

IQALUIT CLIMATE
NUNAVUT

63°44'50.000" N
68°32'40.000" W
33.50 m
2402592
71321
XFB

Download Data

Hourly Data (October 2016)
Hourly Data Report for October 5, 2016
Temp Definition
°C
Dew Point Temp Definition
°C
Rel Hum Definition
%
Wind Dir Definition
10's deg

Wind Spd Definition
km/h
Visibility Definition
km
Stn Press Definition
kPa
Hmdx Definition


Wind Chill Definition


Weather Definition


TIME
00:00 0.6 -0.9 90 19 15   99.53     LegendNANA
01:00 0.7 -0.7 91 18 5   99.57     LegendNANA
02:00 0.6 -0.3 94 34 6   99.58     LegendNANA
03:00 0.3 -0.2 96 19 7   99.64     LegendNANA
04:00 0.0 -0.3 98 26 24   99.70   -6 LegendNANA
05:00 0.8 -0.3 92 30 23   99.72     LegendNANA
06:00 0.8 -2.3 80 29 29   99.77     LegendNANA
07:00 0.7 -2.3 81 29 22   99.82     LegendNANA
08:00 0.7 -2.8 77 30 24   99.83     LegendNANA
09:00 1.0 -2.8 76 29 18   99.80     LegendNANA
10:00 1.7 -2.7 72 26 16   99.70     LegendNANA
11:00 2.1 -2.0 74 21 4   99.65     LegendNANA
12:00 2.1 -1.0 80 10 3   99.61     LegendNANA
13:00 1.8 0.4 90 31 22   99.67     LegendNANA
14:00 1.5 -0.2 89 32 34   99.75     LegendNANA
15:00 1.5 -0.8 84 32 38   99.81     LegendNANA
16:00 1.4 -0.7 86 31 34   99.89     LegendNANA
17:00 1.3 -0.8 86 31 30   99.95     LegendNANA
18:00 0.9 -0.9 88 31 33   99.96     LegendNANA
19:00 0.7 -0.2 93 31 24   100.02     LegendNANA
20:00 0.4 -0.7 92 33 19   100.10     LegendNANA
21:00 0.8 -0.5 91 32 27   100.17     LegendNANA
22:00 0.4 -1.3 89 33 29   100.22     LegendNANA
23:00 0.1 -1.7 87 33 35   100.28     LegendNANA

Notes on Data Quality.

Legend

  • E = Estimated
  • M = Missing
  • NA = Not Available
  • ‡ = Partner data that is not subject to review by the National Climate Archives
Date modified: